Weather History for Hugo, OK

Change the Weather History Date:

Friday, November 22, 2013

  Actual Average Record
Temperature  
Mean Temperature 44 °F -  
Max Temperature 50 °F 62 °F 50 °F (2013)
Min Temperature 39 °F 41 °F 39 °F (2013)
Degree Days  
Heating Degree Days 20    
Moisture  
Dew Point 39 °F    
Average Humidity 91    
Maximum Humidity 95    
Minimum Humidity 83    
Precipitation  
Precipitation 0.00 in - - ()
Sea Level Pressure  
Sea Level Pressure 30.35 in    
Wind  
Wind Speed 14 mph (North)    
Max Wind Speed 21 mph    
Max Gust Speed 31 mph    
Visibility 7 miles    
Events Rain , Thunderstorm    
Averages and records for this station are not official NWS values.
T = Trace of Precipitation, MM = Missing Value Source: NWS Daily Summary

Daily Weather History Graph

Daily Weather History Graph

Search for Another Location

Airport:

Trip Planner

Search our weather history database for the weather conditions in past years. The results will help you decide how hot, cold, wet, or windy it might be!

Date:

Astronomy

Nov. 22, 2013 Rise Set
Actual Time 7:01 AM CST 5:14 PM CST
Civil Twilight 6:34 AM CST 5:41 PM CST
Nautical Twilight 6:04 AM CST 6:12 PM CST
Astronomical Twilight 5:34 AM CST 6:42 PM CST
Moon 9:44 PM CST (11/22) 10:48 AM CST (11/22)
Length of Visible Light 11h 07m
Length of Day
10h 13m
Waning Gibbous, 78% of the Moon is Illuminated
Nov 22
Waning Gibbous
Nov 25
Last Quarter
Dec 2
New
Dec 9
First Quarter
Dec 17
Full

Hourly Weather History & Observations

Time (CST) Temp. Windchill Dew Point Humidity Pressure Visibility Wind Dir Wind Speed Gust Speed Precip Events Conditions
12:15 AM 50.9 °F - 49.1 °F 94% 30.20 in 10.0 mi NNW 12.7 mph 18.4 mph N/A Thunderstorm Overcast
12:35 AM 49.3 °F - 47.3 °F 93% 30.19 in 10.0 mi North 19.6 mph 26.5 mph N/A   Overcast
12:55 AM 48.4 °F - 46.6 °F 93% 30.20 in 10.0 mi NNW 20.7 mph 26.5 mph N/A   Overcast
1:15 AM 47.5 °F - 45.5 °F 93% 30.22 in 10.0 mi North 15.0 mph 25.3 mph N/A   Overcast
1:35 AM 46.9 °F - 45.0 °F 93% 30.23 in 10.0 mi NNW 15.0 mph 20.7 mph N/A   Overcast
1:55 AM 46.4 °F 39.8 °F 43.9 °F 91% 30.23 in 10.0 mi North 16.1 mph 24.2 mph N/A   Overcast
2:15 AM 45.7 °F 39.8 °F 43.0 °F 90% 30.24 in 10.0 mi North 12.7 mph 31.1 mph N/A   Overcast
2:35 AM 44.6 °F 36.6 °F 41.4 °F 88% 30.23 in 10.0 mi North 19.6 mph 25.3 mph N/A   Overcast
2:55 AM 44.6 °F 37.2 °F 41.2 °F 88% 30.23 in 10.0 mi North 17.3 mph 28.8 mph N/A   Overcast
3:15 AM 44.2 °F 37.3 °F 40.8 °F 88% 30.25 in 10.0 mi North 15.0 mph 23.0 mph N/A   Overcast
3:35 AM 44.1 °F 37.1 °F 40.5 °F 87% 30.24 in 10.0 mi North 15.0 mph 26.5 mph N/A   Overcast
3:55 AM 44.1 °F 38.6 °F 40.3 °F 87% 30.27 in 10.0 mi North 10.4 mph - N/A   Overcast
4:15 AM 43.9 °F 35.9 °F 40.1 °F 87% 30.26 in 10.0 mi North 18.4 mph 23.0 mph N/A   Overcast
4:35 AM 43.7 °F 36.6 °F 39.9 °F 87% 30.28 in 10.0 mi North 15.0 mph 18.4 mph N/A   Overcast
4:55 AM 43.5 °F 36.7 °F 39.4 °F 85% 30.27 in 10.0 mi North 13.8 mph 21.9 mph N/A   Overcast
5:15 AM 43.0 °F 37.2 °F 39.4 °F 87% 30.29 in 10.0 mi North 10.4 mph 20.7 mph N/A   Overcast
5:35 AM 42.4 °F 36.5 °F 38.8 °F 87% 30.30 in 10.0 mi North 10.4 mph 20.7 mph N/A   Overcast
5:55 AM 42.3 °F 35.1 °F 38.3 °F 86% 30.31 in 10.0 mi North 13.8 mph 26.5 mph N/A   Overcast
6:15 AM 42.1 °F 35.2 °F 38.1 °F 86% 30.32 in 10.0 mi North 12.7 mph 25.3 mph N/A   Overcast
6:35 AM 41.9 °F 35.0 °F 38.3 °F 87% 30.33 in 10.0 mi North 12.7 mph 20.7 mph N/A   Overcast
6:55 AM 41.2 °F 33.4 °F 37.9 °F 88% 30.34 in 10.0 mi North 15.0 mph 20.7 mph N/A   Overcast
7:15 AM 41.2 °F 33.4 °F 37.4 °F 86% 30.36 in 10.0 mi North 15.0 mph 20.7 mph N/A   Overcast
7:35 AM 41.0 °F 34.3 °F 37.4 °F 87% 30.37 in 10.0 mi North 11.5 mph 17.3 mph N/A   Overcast
7:55 AM 41.0 °F 33.1 °F 36.7 °F 85% 30.37 in 10.0 mi North 15.0 mph 20.7 mph N/A   Overcast
8:15 AM 40.3 °F 33.4 °F 37.2 °F 89% 30.38 in 4.0 mi North 11.5 mph 21.9 mph N/A   Overcast
8:35 AM 40.1 °F 32.4 °F 37.6 °F 91% 30.39 in 4.0 mi North 13.8 mph 20.7 mph N/A   Overcast
8:55 AM 40.3 °F 32.2 °F 37.8 °F 91% 30.38 in 4.0 mi North 15.0 mph 21.9 mph N/A   Overcast
9:15 AM 40.3 °F 32.2 °F 37.8 °F 91% 30.39 in 7.0 mi North 15.0 mph 20.7 mph N/A   Overcast
9:35 AM 40.6 °F 32.0 °F 37.2 °F 88% 30.39 in 10.0 mi North 17.3 mph 23.0 mph N/A   Overcast
9:55 AM 41.0 °F 33.5 °F 36.7 °F 85% 30.39 in 10.0 mi North 13.8 mph 24.2 mph N/A   Overcast
10:15 AM 40.6 °F 31.2 °F 36.7 °F 86% 30.38 in 10.0 mi North 20.7 mph - N/A   Overcast
10:35 AM 40.6 °F 33.0 °F 36.9 °F 86% 30.40 in 10.0 mi North 13.8 mph 21.9 mph N/A   Overcast
10:55 AM 41.2 °F 33.7 °F 37.2 °F 86% 30.39 in 10.0 mi North 13.8 mph 19.6 mph N/A   Overcast
11:15 AM 41.5 °F 34.6 °F 37.0 °F 84% 30.39 in 10.0 mi North 12.7 mph - N/A   Overcast
11:35 AM 42.1 °F 35.2 °F 37.4 °F 83% 30.37 in 10.0 mi North 12.7 mph - N/A   Overcast
11:55 AM 42.3 °F 35.5 °F 37.6 °F 83% 30.36 in 5.0 mi North 12.7 mph 19.6 mph N/A   Overcast
12:15 PM 42.3 °F 35.5 °F 38.5 °F 86% 30.36 in 5.0 mi North 12.7 mph 17.3 mph N/A   Overcast
12:35 PM 41.5 °F 33.8 °F 38.5 °F 89% 30.36 in 4.0 mi North 15.0 mph 20.7 mph N/A   Overcast
12:55 PM 41.2 °F 35.0 °F 38.8 °F 91% 30.36 in 2.0 mi North 10.4 mph - N/A   Drizzle
1:15 PM 41.0 °F 33.5 °F 39.2 °F 93% 30.36 in 2.0 mi North 13.8 mph - N/A   Drizzle
1:35 PM 40.6 °F 35.4 °F 39.0 °F 94% 30.36 in 1.8 mi North 8.1 mph - N/A Rain Rain
1:55 PM 41.0 °F 35.2 °F 39.4 °F 94% 30.35 in 1.8 mi North 9.2 mph 19.6 mph N/A Rain Heavy Rain
2:15 PM 40.6 °F 33.0 °F 39.2 °F 95% 30.35 in 2.5 mi North 13.8 mph 18.4 mph N/A   Drizzle
2:35 PM 40.8 °F 35.0 °F 39.2 °F 94% 30.35 in 2.0 mi North 9.2 mph - N/A   Drizzle
2:55 PM 40.5 °F 34.1 °F 39.2 °F 95% 30.36 in 1.5 mi North 10.4 mph 18.4 mph N/A   Drizzle
3:15 PM 40.3 °F 33.4 °F 38.8 °F 95% 30.36 in 1.8 mi North 11.5 mph 16.1 mph N/A   Drizzle
3:35 PM 40.1 °F 32.4 °F 38.7 °F 95% 30.37 in 2.0 mi North 13.8 mph - N/A   Drizzle
3:55 PM 40.1 °F 33.6 °F 38.7 °F 95% 30.39 in 2.0 mi North 10.4 mph 16.1 mph N/A Rain Rain
4:15 PM 39.7 °F 33.2 °F 38.3 °F 95% 30.38 in 2.0 mi North 10.4 mph 17.3 mph N/A Rain Rain
4:35 PM 39.6 °F 32.1 °F 38.1 °F 95% 30.37 in 1.8 mi North 12.7 mph 19.6 mph N/A Rain Light Rain
4:55 PM 39.6 °F 33.0 °F 38.3 °F 95% 30.36 in 3.0 mi North 10.4 mph 19.6 mph N/A Rain Light Rain
5:15 PM 39.7 °F 32.7 °F 38.3 °F 95% 30.37 in 7.0 mi North 11.5 mph - N/A Rain Rain
5:35 PM 39.7 °F 32.7 °F 37.9 °F 93% 30.36 in 3.0 mi North 11.5 mph 17.3 mph N/A   Overcast
5:55 PM 39.6 °F 33.0 °F 37.9 °F 94% 30.37 in 4.0 mi North 10.4 mph - N/A Rain Rain
6:15 PM 39.7 °F 34.3 °F 38.3 °F 95% 30.37 in 5.0 mi North 8.1 mph - N/A Rain Light Rain
6:35 PM 40.1 °F 34.1 °F 38.3 °F 93% 30.39 in 10.0 mi North 9.2 mph - N/A Rain Rain
6:55 PM 40.1 °F 33.6 °F 38.3 °F 93% 30.39 in 5.0 mi North 10.4 mph 17.3 mph N/A Rain Light Rain
7:15 PM 40.1 °F 33.2 °F 38.3 °F 93% 30.40 in 2.0 mi North 11.5 mph 18.4 mph N/A   Overcast
7:35 PM 40.1 °F 34.1 °F 38.5 °F 94% 30.39 in 3.0 mi North 9.2 mph 16.1 mph N/A   Overcast
7:55 PM 40.3 °F 33.0 °F 38.7 °F 94% 30.40 in 5.0 mi North 12.7 mph 16.1 mph N/A Rain Light Rain
8:15 PM 40.5 °F 34.6 °F 38.8 °F 94% 30.41 in 5.0 mi North 9.2 mph - N/A Rain Rain
8:35 PM 40.6 °F 33.8 °F 38.8 °F 93% 30.41 in 5.0 mi North 11.5 mph 16.1 mph N/A Rain Light Rain
8:55 PM 40.6 °F 36.0 °F 38.7 °F 93% 30.41 in 7.0 mi North 6.9 mph - N/A Rain Light Rain
9:15 PM 41.0 °F 35.8 °F 38.8 °F 92% 30.41 in 7.0 mi North 8.1 mph - N/A Rain Rain
9:35 PM 40.6 °F 34.3 °F 38.8 °F 93% 30.41 in 5.0 mi North 10.4 mph - N/A Rain Light Rain
9:55 PM 41.0 °F 35.2 °F 38.8 °F 92% 30.42 in 7.0 mi North 9.2 mph - N/A Rain Rain
10:15 PM 40.6 °F 34.3 °F 38.8 °F 93% 30.42 in 5.0 mi North 10.4 mph - N/A   Heavy Drizzle
10:35 PM 40.6 °F 34.3 °F 39.2 °F 95% 30.43 in 4.0 mi North 10.4 mph - N/A Rain Heavy Rain
10:55 PM 40.6 °F 34.3 °F 39.2 °F 95% 30.43 in 7.0 mi North 10.4 mph - N/A Rain Rain
11:15 PM 40.6 °F 33.8 °F 39.2 °F 95% 30.43 in 5.0 mi North 11.5 mph - N/A   Drizzle
11:35 PM 41.0 °F 35.2 °F 39.2 °F 93% 30.44 in 4.0 mi North 9.2 mph - N/A Rain Heavy Rain
11:55 PM 41.0 °F 34.7 °F 39.2 °F 93% 30.45 in 7.0 mi North 10.4 mph - N/A   Drizzle